{"data":{"norad_id":58633,"intl_designator":"2023-203R","name":"STARLINK-31022","alt_names":[],"object_type":"PAYLOAD","status":"ACTIVE","operator":null,"country":"US","launch_date":"2023-12-23","launch_site_code":"AFETR","launch_vehicle":null,"mission":null,"orbit_class":"UNKNOWN","rcs_meters":null,"size_class":null,"mass_kg":null,"dimensions":null,"purposes":["comms"],"wikipedia_slug":null,"has_3d_model":false,"image_url":null,"decayed_at":null,"tle_current":{"epoch":"2026-05-24T23:31:02.221248Z","epoch_age_seconds":79959,"freshness":"FRESH","line1":"1 58633U 23203R   26144.97988682  .00013242  00000+0  49028-3 0  9996","line2":"2 58633  43.0041   0.1415 0002103 297.4381  62.6257 15.27552044136418","mean_motion":15.27552044,"eccentricity":0.0002103,"inclination_deg":43.0041,"raan_deg":0.1415,"arg_perigee_deg":297.4381,"mean_anomaly_deg":62.6257,"bstar":0.00049028,"rev_number":13641,"period_min":94.268473906084,"perigee_km":481.68988259689,"apogee_km":484.57573267798,"semimajor_km":6861.2698076374,"source":"CELESTRAK","updated_at":"2026-05-25T13:38:18.708086Z"}}}